Regional Weather Roundup
Issued by NWS Kansas City/Pleasant Hill, MO

Home | Current Version | Previous Version | Graphics & Text | Print | Product List | Glossary Off
Versions: 1 2 3 4 5 6 7 8 9 10 11 12 13 14 15 16 17 18 19 20 21 22 23 24 25 26 27 28 29 30 31 32 33 34 35 36 37 38 39 40 41 42 43 44 45 46 47 48 49 50

000
ASUS43 KEAX 220904
RWREAX

WEATHER ROUNDUP FOR EASTERN KANSAS AND NORTHWEST MISSOURI
NATIONAL WEATHER SERVICE KANSAS CITY/PLEASANT HILL MO
400 AM CDT FRI AUG 22 2014

KSZ040-057-103>105-MOZ028-029-037-043-221000-
...KANSAS CITY METROPOLITAN AREA...

CITY           SKY/WX    TMP DP  RH WIND       PRES   REMARKS
K.C. INTL      MOCLDY    80  71  74 S14       29.91F
K.C. DOWNTOWN  MOCLDY    82  71  69 S13       29.91R
LEES SUMMIT    CLEAR     78  71  79 S7        29.95R
OLATHE - IXD   MOCLDY    78  71  79 S6        29.94R
OLATHE - OJC   MOCLDY    78  71  79 S8        29.93R
LAWRENCE       CLOUDY    80  71  74 SE6       29.92R

$$

MOZ001>008-011>017-020>025-030>033-038>040-044>046-053-054-221000-
...NORTHERN AND CENTRAL MISSOURI...

CITY           SKY/WX    TMP DP  RH WIND       PRES   REMARKS
ST. JOSEPH     MOCLDY    78  73  84 CALM      29.91R
MOSBY          PTSUNNY   81  70  69 S8        29.91F
WHITEMAN AFB   CLEAR     76  54  46 SW8       29.94S
CLINTON        CLEAR     79  72  78 S7        29.95S
SEDALIA        CLEAR     78  70  76 SW10      29.96S
WARSAW         NOT AVBL
MARSHALL       CLEAR     79  73  83 SW7       29.95R
CHILLICOTHE      N/A     80  72  76 VRB6      29.92R
MOBERLY        CLEAR     79  68  69 SW10      29.95R
KIRKSVILLE     PTCLDY    80  71  74 SW10      29.92S

$$

MOZ041-047>049-056>058-063>065-088>090-097-221000-
...EASTERN AND SOUTHERN MISSOURI...

CITY           SKY/WX    TMP DP  RH WIND       PRES   REMARKS
ST. LOUIS INTL CLEAR     82  68  62 SW13      29.95S
SPIRIT OF STL  CLEAR     77  68  73 SW6       29.94S
COLUMBIA       CLEAR     76  70  82 S8        29.96S
JEFFERSON CITY CLEAR     78  69  73 S5        29.95S
MEXICO         CLEAR     79  73  83 SW9       29.94S
ROLLA          CLEAR     74  68  81 SW12      29.98F
LEBANON        CLEAR     75  68  78 S7        30.01F
OSAGE BEACH    CLEAR     75  68  78 S6        29.97F
SPRINGFIELD    CLEAR     75  70  84 S10       30.00F
BRANSON        CLEAR     73  72  94 S5        30.03F
NEVADA         CLEAR     73  70  88 S7        29.96S
JOPLIN         CLEAR     79  71  76 S14       29.97F
WEST PLAINS    CLEAR     73  68  84 S3        30.04F

$$

IAZ060-094-KSZ022-034>040-054-083-096-NEZ052-066-093-221000-
...KANSAS...SOUTHEAST NEBRASKA AND IOWA...

CITY           SKY/WX    TMP DP  RH WIND       PRES   REMARKS
TOPEKA         CLOUDY    83  73  72 CALM      29.90R
MANHATTAN      MOCLDY    81  71  71 S7        29.86S
EMPORIA        CLEAR     78  70  76 S13       29.90S
CHANUTE        CLEAR     79  70  74 S10       29.94S
WICHITA        PTCLDY    79  68  69 S10       29.90F
OMAHA          CLOUDY    75  71  87 SE7       29.89R
LINCOLN        CLOUDY    75  71  87 NE3       29.91R
FALLS CITY     CLOUDY    81  72  74 S3        29.90R
LAMONI         CLOUDY    73  70  90 W5        29.94F
DES MOINES     TSTM      75  71  87 SE7       29.87F

$$



USA.gov is the U.S. government's official web portal to all federal, state and local government web resources and services.